Tracking 19242 objects as of 16-Aug-2018
HD Live streaming from Space Station
objects crossing your sky now

NOAA 16 DEB

Track NOAA 16 DEB now!
10-day predictions


NORAD ID: 41159
Int'l Code: 2000-055CS
Perigee: 823.0 km
Apogee: 860.0 km
Inclination: 98.8 °
Period: 101.6 minutes
Semi major axis: 7212 km
RCS: Unknown
Launch date: September 21, 2000
Source: United States (US)
Launch site: AIR FORCE WESTERN TEST RANGE (AFWTR)

Note: This is SATELLITE DEBRIS
aabbcc
Your satellite tracking list
Your tracking list is empty




NASA's NSSDC Master Catalog

Two Line Element Set (TLE):
1 41159U 00055CS  18227.39284731  .00000477  00000-0  25659-3 0  9995
2 41159  98.7926 300.8383 0025635 176.1998 183.9376 14.17350983139955
Source of the keplerian elements: AFSPC